Tracking 19219 objects as of 20-Jul-2018
HD Live streaming from Space Station
objects crossing your sky now

COSMOS 917 DEB

Track COSMOS 917 DEB now!


NORAD ID: 26964
Int'l Code: 1977-047E
Perigee: 3,755.4 km
Apogee: 36,261.3 km
Inclination: 64.8 °
Period: 710.6 minutes
Semi major axis: 26379 km
RCS: 0.2518 m2 (medium)
Launch date: June 16, 1977
Source: Commonwealth of Independent States (former USSR) (CIS)
Launch site: PLESETSK MISSILE AND SPACE COMPLEX (PKMTR)

Note: This is SATELLITE DEBRIS
aabbcc
Your satellite tracking list
Your tracking list is empty




NASA's NSSDC Master Catalog

Two Line Element Set (TLE):
1 26964U 77047E   18199.58892359 -.00000641  00000-0  00000+0 0  9990
2 26964  64.8444 251.2532 6161250  48.5087 350.0764  2.02631536518885
Source of the keplerian elements: AFSPC